Location: Platte
(43.3870°N, 98.8440°W)
Time: 03:05:32
(UTC-05:00)

Meteor 1-19 Rocket - Pass Details

Date: 21 May 2018
Orbit: 826 x 909 km, 81.2° (Epoch: 19 October)

Event Time Altitude Azimuth Distance (km) Brightness Sun altitude
Exits shadow 22:29:51 - 183° (S) 2,899 6.6 -13.8°
Reaches altitude 10° 22:30:42 10° 183° (S) 2,577 6.3 -13.9°
Maximum altitude 22:36:35 79° 98° (E) 931 4.3 -14.6°
Drops below altitude 10° 22:42:32 10° 13° (NNE) 2,601 7.2 -15.3°
Sets 22:45:01 0° 12° (NNE) 3,543 8.0 -15.6°
